Regional Weather Roundup
Issued by NWS Kansas City/Pleasant Hill, MO

Home | Current Version | Previous Version | Graphics & Text | Print | Product List | Glossary Off
Versions: 1 2 3 4 5 6 7 8 9 10 11 12 13 14 15 16 17 18 19 20 21 22 23 24 25 26 27 28 29 30 31 32 33 34 35 36 37 38 39 40 41 42 43 44 45 46 47 48 49 50

000
ASUS43 KEAX 022211
RWREAX

WEATHER ROUNDUP FOR EASTERN KANSAS AND NORTHWEST MISSOURI
NATIONAL WEATHER SERVICE KANSAS CITY/PLEASANT HILL MO
500 PM CDT THU JUL 02 2015

KSZ040-057-103>105-MOZ028-029-037-043-022300-
...KANSAS CITY METROPOLITAN AREA...

CITY           SKY/WX    TMP DP  RH WIND       PRES   REMARKS
K.C. INTL      LGT RAIN  70  67  90 E8        29.94R FOG
K.C. DOWNTOWN  CLOUDY    72  68  87 NE7       29.93R
LEES SUMMIT    CLOUDY    72  67  84 N8        29.94R
OLATHE - IXD   CLOUDY    74  68  81 NE8       29.94R
OLATHE - OJC   CLOUDY    73  68  84 NE8       29.93R
LAWRENCE       LGT RAIN  72  68  87 NE6       29.93S

$$

MOZ001>008-011>017-020>025-030>033-038>040-044>046-053-054-022300-
...NORTHERN AND CENTRAL MISSOURI...

CITY           SKY/WX    TMP DP  RH WIND       PRES   REMARKS
ST. JOSEPH     CLOUDY    70  66  87 E8        29.94R
MOSBY          LGT RAIN  70  64  83 CALM      29.95R
WHITEMAN AFB   CLOUDY    73  68  83 NE9       29.90F
CLINTON        CLOUDY    75  70  83 NE6       29.91R
SEDALIA        CLOUDY    74  67  78 NE7       29.92F
WARSAW         FAIR      75  70  83 NE6       29.90F
CHILLICOTHE      N/A     73  65  75 CALM      29.94F
KIRKSVILLE     CLOUDY    71  58  63 NE7       29.96F

$$

MOZ041-047>049-056>058-063>065-088>090-097-022300-
...EASTERN AND SOUTHERN MISSOURI...

CITY           SKY/WX    TMP DP  RH WIND       PRES   REMARKS
ST. LOUIS INTL CLOUDY    78  63  59 NE9       29.89S
SPIRIT OF STL  CLOUDY    76  65  68 VRB5      29.88S
COLUMBIA       CLOUDY    74  66  76 NE7       29.92S
JEFFERSON CITY CLOUDY    75  66  73 NE5       29.90S
ROLLA          CLOUDY    72  68  87 NE9       29.90R
LEBANON        CLOUDY    77  72  83 N7        29.90S
OSAGE BEACH    CLOUDY    73  68  83 NE6       29.90S
SPRINGFIELD    PTSUNNY   81  72  74 N10       29.87F
BRANSON        CLOUDY    82  77  83 W5        29.87F HX  91
JOPLIN         PTSUNNY   82  73  74 N7        29.87F
WEST PLAINS    PTSUNNY   83  72  69 CALM      29.87S
MALDEN         SUNNY     86  72  62 SW7       29.83S HX  92

$$

IAZ060-094-KSZ022-034>040-054-083-096-NEZ052-066-093-022300-
...KANSAS...SOUTHEAST NEBRASKA AND IOWA...

CITY           SKY/WX    TMP DP  RH WIND       PRES   REMARKS
TOPEKA         PTSUNNY   76  70  82 E7        29.92S
MANHATTAN      PTSUNNY   85  70  60 MISG      29.90F
EMPORIA        CLOUDY    78  68  71 CALM      29.94R
CHANUTE        LGT RAIN  78  71  79 N5        29.93R
WICHITA        LGT RAIN  76  71  85 N6        29.96S
OMAHA          CLOUDY    70  65  84 E7        29.96S HAZE
LINCOLN        CLOUDY    75  67  76 NE12      29.93S
FALLS CITY     LGT RAIN  70  68  93 E5        29.94R
LAMONI         CLOUDY    69  62  78 VRB7      29.96F
DES MOINES     LGT RAIN  69  51  52 CALM      29.99R

$$




USA.gov is the U.S. government's official web portal to all federal, state and local government web resources and services.